Simultaneous Nadir Overpasses (SNOs) Predictions

Prediction of SNOs between LANDSAT-8 and METOP-B Satellite Orbit:

Table of predicted SNOs for the next 14.0 days since TLE Epoch: 10/21/2017
Index Date (LANDSAT-8) Time (LANDSAT-8) Lat,Lon (LANDSAT-8) SZA (LANDSAT-8 ) Date (METOP-B) Time (METOP-B) Lat,Lon (METOP-B) SZA (METOP-B ) Distance(km) Time Diff (sec)
1 10/23/2017 18:14:28 -81.11, 126.17 84.86 10/23/2017 18:14:19 -81.12, 126.10 84.87 1.32 9
2 10/23/2017 19:03:53 81.14, -65.72 95.23 10/23/2017 19:04:58 81.14, -65.88 95.24 2.72 65
3 10/26/2017 13:00:05 79.61, 9.64 93.41 10/26/2017 12:58:52 80.01, 7.74 93.60 58.48 73
4 10/26/2017 13:48:43 -81.12,-167.26 83.87 10/26/2017 13:48:41 -81.13,-167.27 83.87 0.31 2
5 10/26/2017 14:38:08 81.15, 0.82 96.21 10/26/2017 14:39:20 81.15, 0.75 96.24 1.12 72
6 10/29/2017 08:33:32 81.11, 91.28 97.03 10/29/2017 08:32:24 81.11, 91.34 97.01 1.21 68
7 10/29/2017 09:22:58 -81.13,-100.74 82.91 10/29/2017 09:23:03 -81.13,-100.66 82.90 1.41 5
8 11/01/2017 04:07:47 81.11, 157.74 97.95 11/01/2017 04:06:46 81.12, 157.92 97.94 3.32 61
9 11/01/2017 04:57:13 -81.13, -34.26 81.99 11/01/2017 04:57:25 -81.14, -34.08 81.96 3.14 12
10 11/03/2017 23:42:01 81.11,-135.84 98.82 11/03/2017 23:41:08 81.11,-135.90 98.79 1.00 53




NCC Satellite Simultaneous Nadir Overpasses (SNOs) Prediction Service
